STARLINK-1133, 45064

Orbit data source: Space-Track

STARLINK-1133, 45064 is a payload satellite owned by SpaceX/Seattle (US) in LEO that was launched on Wed, 29 Jan 2020 UTC via an FALCON 9 launch vehicle from the Air Force Eastern Test Range (AFETR). Payload-class satellites include a variety of spacecraft equipped with specific instruments for various scientific and technological missions. These include communications satellites like Starlink; space stations such as the ISS; scientific satellites like the Hubble; Earth observation satellites from companies like Planet Labs, Umbra, and HawkEye 360; GPS; miniature CubeSats for education and research; and military/defense satellites.

Loading next visibility...
Identifier
45064, 2020-006W
Orbit
LEO
Country
Flag of USUS
Related business
Manufacturer
SpaceX/Seattle
Mission
Operational Commercial Communications
Bus & Motor
STARLINK, Unknown motor
Mass
260 kg wet, ~248 kg dry
Launch date (UTC)
2020-01-29 (6 years ago)
Launch vehicle
FALCON 9
Launch site
Air Force Eastern Test Range (AFETR)
Object type
Payload
Rocket body
Debris
Shape & HBR
Box + 1 Pan, 10.1 m
Radar Cross Section
13.562 m², Large (>1 m²)

Expand to show TLE details & history
Last TLE update: 9 hours ago

TLE from 9 hours ago
0 STARLINK-1133
1 45064U 20006W   25286.80551652 -.00003214  00000-0 -19697-3 0  9999
2 45064  53.0532 206.0054 0001368 108.3476 251.7662 15.06400598314604
Epoch: 2025-10-13T19:19Z
TLE epoch observation values (Epoch: 2025-10-13T19:19:56.627Z)
Latitude
-0°
Longitude
-106.58357°
Altitude
548.385 km
Speed
7.589 km/s
True Right ascension
13h 44m 01s
True Declination
0° 00' 00"
Sunlit
Object was in daylight at epoch
Visualization orbit readout
Latitude
Unknown
Longitude
Unknown
Altitude
Unknown
Speed
Unknown
Apparent Right ascension
Unknown
Apparent Declination
Unknown
Sunlit
N/A
Visualization observer readout
Local Sidereal Time
22:38:20
Azimuth
Unknown
Elevation
Unknown
Doppler factor
Unknown
Orbital elements
Apogee altitude
548.428 km
Perigee altitude
546.533 km
Semi-major axis
6,925.618 km
Eccentricity
0.00014
Inclination
53.0532°
RAAN
206.0054°
Arg. of periapsis
108.3476°
True anomaly
251.75131°
Mean anomaly
251.7662°
Eccentric anomaly
251.75876°
Mean motion
3.76578 °/min
Orbital period
95.6 mins
BSTAR
-0.00019697
Loading maneuver chart data...
Computing Atmospheric mass density...

Documentation

Showing up to 5 results
|